Time,TemperatureF,DewpointF,PressureIn,WindDirection,WindDirectionDegrees,WindSpeedMPH,WindSpeedGustMPH,Humidity,HourlyPrecipIn,Conditions,Clouds,dailyrainin,SoftwareType,DateUTC
2013-02-18 00:02:00,19.9,12.0,30.35,NNW,337,0.0,-999.0,71,0.00,Sunny,,0.12,Open2300\PHP-WU,2013-02-18 05:02:00,
2013-02-18 00:04:00,19.9,12.0,30.35,NNW,337,0.0,-999.0,71,0.00,Sunny,,0.12,Open2300\PHP-WU,2013-02-18 05:04:00,
2013-02-18 00:08:00,19.9,12.0,30.35,NNW,337,0.0,-999.0,71,0.00,Sunny,,0.12,Open2300\PHP-WU,2013-02-18 05:08:00,
2013-02-18 00:14:00,19.6,11.6,30.35,NNW,337,0.0,-999.0,71,0.00,Sunny,,0.12,Open2300\PHP-WU,2013-02-18 05:14:00,
2013-02-18 00:20:00,19.4,11.7,30.35,NNW,337,0.0,-999.0,72,0.00,Sunny,,0.12,Open2300\PHP-WU,2013-02-18 05:20:00,
2013-02-18 00:26:00,19.2,11.6,30.35,NNW,337,0.0,-999.0,72,0.00,Sunny,,0.12,Open2300\PHP-WU,2013-02-18 05:26:00,
2013-02-18 00:32:00,19.4,12.0,30.35,NNW,337,0.0,-999.0,73,0.00,Sunny,,0.12,Open2300\PHP-WU,2013-02-18 05:32:00,
2013-02-18 00:38:00,19.2,11.9,30.36,NNW,337,0.0,-999.0,73,0.00,Sunny,,0.12,Open2300\PHP-WU,2013-02-18 05:38:00,
2013-02-18 00:44:00,18.9,11.5,30.35,NNW,337,0.0,-999.0,73,0.00,Sunny,,0.12,Open2300\PHP-WU,2013-02-18 05:44:00,
2013-02-18 00:50:00,18.3,11.3,30.35,NNW,337,0.0,-999.0,74,0.00,Sunny,,0.12,Open2300\PHP-WU,2013-02-18 05:50:00,
2013-02-18 00:56:00,18.1,11.2,30.35,NNW,337,0.0,-999.0,74,0.00,Sunny,,0.12,Open2300\PHP-WU,2013-02-18 05:56:00,
2013-02-18 01:01:00,18.3,11.6,30.36,NNW,337,0.0,-999.0,75,0.00,Sunny,,0.12,Open2300\PHP-WU,2013-02-18 06:01:00,
2013-02-18 01:08:00,18.7,12.0,30.36,NNW,337,0.0,-999.0,75,0.00,Sunny,,0.12,Open2300\PHP-WU,2013-02-18 06:08:00,
2013-02-18 01:14:00,18.9,12.1,30.36,NNW,337,0.0,-999.0,75,0.00,Sunny,,0.12,Open2300\PHP-WU,2013-02-18 06:14:00,
2013-02-18 01:20:00,18.7,12.0,30.37,NNW,337,0.0,-999.0,75,0.00,Sunny,,0.12,Open2300\PHP-WU,2013-02-18 06:20:00,
2013-02-18 01:26:00,18.3,11.6,30.37,NNW,337,0.0,-999.0,75,0.00,Sunny,,0.12,Open2300\PHP-WU,2013-02-18 06:26:00,
2013-02-18 01:31:00,18.1,11.7,30.36,NNW,337,0.0,-999.0,76,0.00,Sunny,,0.12,Open2300\PHP-WU,2013-02-18 06:31:00,
2013-02-18 01:37:00,18.1,11.7,30.37,NNW,337,0.0,-999.0,76,0.00,Sunny,,0.12,Open2300\PHP-WU,2013-02-18 06:37:00,
2013-02-18 01:43:00,18.3,11.9,30.37,NNW,337,0.0,-999.0,76,0.00,Sunny,,0.12,Open2300\PHP-WU,2013-02-18 06:43:00,
2013-02-18 01:49:00,18.0,11.6,30.37,NNW,337,0.0,-999.0,76,0.00,Sunny,,0.12,Open2300\PHP-WU,2013-02-18 06:49:00,
2013-02-18 01:56:00,17.8,11.4,30.37,NNW,337,0.0,-999.0,76,0.00,Sunny,,0.12,Open2300\PHP-WU,2013-02-18 06:56:00,
2013-02-18 02:01:00,17.8,11.4,30.37,NNW,337,0.0,-999.0,76,0.00,Sunny,,0.12,Open2300\PHP-WU,2013-02-18 07:01:00,
2013-02-18 02:07:00,17.8,11.4,30.37,NNW,337,0.0,-999.0,76,0.00,Sunny,,0.12,Open2300\PHP-WU,2013-02-18 07:07:00,
2013-02-18 02:13:00,17.8,11.7,30.37,NNW,337,0.0,-999.0,77,0.00,Sunny,,0.12,Open2300\PHP-WU,2013-02-18 07:13:00,
2013-02-18 02:19:00,17.4,11.3,30.36,NNW,337,0.0,-999.0,77,0.00,Sunny,,0.12,Open2300\PHP-WU,2013-02-18 07:19:00,
2013-02-18 02:25:00,17.2,11.2,30.36,NNW,337,0.0,-999.0,77,0.00,Sunny,,0.12,Open2300\PHP-WU,2013-02-18 07:25:00,
2013-02-18 02:31:00,17.2,11.2,30.36,NNW,337,0.0,-999.0,77,0.00,Sunny,,0.12,Open2300\PHP-WU,2013-02-18 07:31:00,
2013-02-18 02:37:00,17.2,11.2,30.37,NNW,337,0.0,-999.0,77,0.00,Sunny,,0.12,Open2300\PHP-WU,2013-02-18 07:37:00,
2013-02-18 02:43:00,17.2,11.5,30.36,NNW,337,0.0,-999.0,78,0.00,Sunny,,0.12,Open2300\PHP-WU,2013-02-18 07:43:00,
2013-02-18 02:49:00,17.2,11.5,30.36,NNW,337,0.0,-999.0,78,0.00,Sunny,,0.12,Open2300\PHP-WU,2013-02-18 07:49:00,
2013-02-18 02:55:00,17.2,11.2,30.37,NNW,337,0.0,-999.0,77,0.00,Sunny,,0.12,Open2300\PHP-WU,2013-02-18 07:55:00,
2013-02-18 03:01:00,17.2,11.5,30.37,NNW,337,0.0,-999.0,78,0.00,Sunny,,0.12,Open2300\PHP-WU,2013-02-18 08:01:00,
2013-02-18 03:07:00,17.2,11.2,30.37,NNW,337,0.0,-999.0,77,0.00,Sunny,,0.12,Open2300\PHP-WU,2013-02-18 08:07:00,
2013-02-18 03:13:00,16.9,11.1,30.37,NNW,337,0.0,-999.0,78,0.00,Sunny,,0.12,Open2300\PHP-WU,2013-02-18 08:13:00,
2013-02-18 03:19:00,16.7,11.0,30.37,NNW,337,0.0,-999.0,78,0.00,Sunny,,0.12,Open2300\PHP-WU,2013-02-18 08:19:00,
2013-02-18 03:25:00,16.7,11.0,30.37,NNW,337,0.0,-999.0,78,0.00,Sunny,,0.12,Open2300\PHP-WU,2013-02-18 08:25:00,
2013-02-18 03:31:00,16.9,11.1,30.37,NNW,337,0.0,-999.0,78,0.00,Sunny,,0.12,Open2300\PHP-WU,2013-02-18 08:31:00,
2013-02-18 03:37:00,16.9,11.4,30.37,NNW,337,0.0,-999.0,79,0.00,Sunny,,0.12,Open2300\PHP-WU,2013-02-18 08:37:00,
2013-02-18 03:43:00,16.7,11.3,30.37,NNW,337,0.0,-999.0,79,0.00,Sunny,,0.12,Open2300\PHP-WU,2013-02-18 08:43:00,
2013-02-18 03:49:00,16.5,11.1,30.38,NNW,337,0.0,-999.0,79,0.00,Sunny,,0.12,Open2300\PHP-WU,2013-02-18 08:49:00,
2013-02-18 03:55:00,16.9,11.4,30.38,NNW,337,0.0,-999.0,79,0.00,Sunny,,0.12,Open2300\PHP-WU,2013-02-18 08:55:00,
2013-02-18 04:01:00,16.9,11.4,30.37,NNW,337,0.0,-999.0,79,0.00,Sunny,,0.12,Open2300\PHP-WU,2013-02-18 09:01:00,
2013-02-18 04:07:00,16.3,10.9,30.38,NNW,337,0.0,-999.0,79,0.00,Sunny,,0.12,Open2300\PHP-WU,2013-02-18 09:07:00,
2013-02-18 04:13:00,16.2,10.8,30.38,NNW,337,0.0,-999.0,79,0.00,Sunny,,0.12,Open2300\PHP-WU,2013-02-18 09:13:00,
2013-02-18 04:19:00,16.0,10.6,30.39,NNW,337,0.0,-999.0,79,0.00,Sunny,,0.12,Open2300\PHP-WU,2013-02-18 09:19:00,
2013-02-18 04:25:00,16.0,10.6,30.39,NNW,337,0.0,-999.0,79,0.00,Sunny,,0.12,Open2300\PHP-WU,2013-02-18 09:25:00,
2013-02-18 04:31:00,16.0,10.6,30.39,NNW,337,0.0,-999.0,79,0.00,Sunny,,0.12,Open2300\PHP-WU,2013-02-18 09:31:00,
2013-02-18 04:37:00,16.2,10.8,30.39,NNW,337,0.0,-999.0,79,0.00,Sunny,,0.12,Open2300\PHP-WU,2013-02-18 09:37:00,
2013-02-18 04:43:00,16.0,10.9,30.39,NNW,337,0.0,-999.0,80,0.00,Sunny,,0.12,Open2300\PHP-WU,2013-02-18 09:43:00,
2013-02-18 04:49:00,15.6,10.6,30.40,NNW,337,0.0,-999.0,80,0.00,Sunny,,0.12,Open2300\PHP-WU,2013-02-18 09:49:00,
2013-02-18 04:55:00,15.6,10.6,30.40,NNW,337,0.0,-999.0,80,0.00,Sunny,,0.12,Open2300\PHP-WU,2013-02-18 09:55:00,
2013-02-18 05:01:00,15.8,10.5,30.40,NNW,337,0.0,-999.0,79,0.00,Sunny,,0.12,Open2300\PHP-WU,2013-02-18 10:01:00,
2013-02-18 05:07:00,15.8,10.8,30.40,NNW,337,0.0,-999.0,80,0.00,Sunny,,0.12,Open2300\PHP-WU,2013-02-18 10:07:00,
2013-02-18 05:13:00,15.6,10.6,30.40,NNW,337,0.0,-999.0,80,0.00,Sunny,,0.12,Open2300\PHP-WU,2013-02-18 10:13:00,
2013-02-18 05:19:00,15.4,10.4,30.41,NNW,337,0.0,-999.0,80,0.00,Sunny,,0.12,Open2300\PHP-WU,2013-02-18 10:19:00,
2013-02-18 05:25:00,15.3,10.2,30.41,NNW,337,0.0,-999.0,80,0.00,Sunny,,0.12,Open2300\PHP-WU,2013-02-18 10:25:00,
2013-02-18 05:31:00,15.4,10.4,30.41,NNW,337,0.0,-999.0,80,0.00,Sunny,,0.12,Open2300\PHP-WU,2013-02-18 10:31:00,
2013-02-18 05:37:00,15.4,10.4,30.41,NNW,337,0.0,-999.0,80,0.00,Sunny,,0.12,Open2300\PHP-WU,2013-02-18 10:37:00,
2013-02-18 05:43:00,15.4,10.4,30.42,NNW,337,0.0,-999.0,80,0.00,Sunny,,0.12,Open2300\PHP-WU,2013-02-18 10:43:00,
2013-02-18 05:49:00,15.3,10.5,30.42,NNW,337,0.0,-999.0,81,0.00,Sunny,,0.12,Open2300\PHP-WU,2013-02-18 10:49:00,
2013-02-18 05:55:00,15.4,10.7,30.43,NNW,337,0.0,-999.0,81,0.00,Sunny,,0.12,Open2300\PHP-WU,2013-02-18 10:55:00,
2013-02-18 06:01:00,15.6,10.8,30.43,NNW,337,0.0,-999.0,81,0.00,Sunny,,0.12,Open2300\PHP-WU,2013-02-18 11:01:00,
2013-02-18 06:07:00,15.4,10.7,30.43,NNW,337,0.0,-999.0,81,0.00,Sunny,,0.12,Open2300\PHP-WU,2013-02-18 11:07:00,
2013-02-18 06:13:00,15.3,10.5,30.43,NNW,337,0.0,-999.0,81,0.00,Sunny,,0.12,Open2300\PHP-WU,2013-02-18 11:13:00,
2013-02-18 06:19:00,15.1,10.3,30.43,NNW,337,0.0,-999.0,81,0.00,Sunny,,0.12,Open2300\PHP-WU,2013-02-18 11:19:00,
2013-02-18 06:25:00,15.1,10.3,30.43,NNW,337,0.0,-999.0,81,0.00,Sunny,,0.12,Open2300\PHP-WU,2013-02-18 11:25:00,
2013-02-18 06:31:00,15.1,10.3,30.43,NNW,337,0.0,-999.0,81,0.00,Sunny,,0.12,Open2300\PHP-WU,2013-02-18 11:31:00,
2013-02-18 06:37:00,14.9,10.1,30.43,NNW,337,0.0,-999.0,81,0.00,Sunny,,0.12,Open2300\PHP-WU,2013-02-18 11:37:00,
2013-02-18 06:43:00,14.9,10.1,30.43,NNW,337,0.0,-999.0,81,0.00,Sunny,,0.12,Open2300\PHP-WU,2013-02-18 11:43:00,
2013-02-18 06:49:00,15.1,10.3,30.43,NNW,337,0.0,-999.0,81,0.00,Sunny,,0.12,Open2300\PHP-WU,2013-02-18 11:49:00,
2013-02-18 06:55:00,15.1,10.3,30.44,NNW,337,0.0,-999.0,81,0.00,Sunny,,0.12,Open2300\PHP-WU,2013-02-18 11:55:00,
2013-02-18 07:01:00,15.3,10.5,30.44,NNW,337,0.0,-999.0,81,0.00,Sunny,,0.12,Open2300\PHP-WU,2013-02-18 12:01:00,
2013-02-18 07:07:00,15.3,10.7,30.44,NNW,337,0.0,-999.0,82,0.00,Sunny,,0.12,Open2300\PHP-WU,2013-02-18 12:07:00,
2013-02-18 07:13:00,15.8,11.3,30.44,NNW,337,0.0,-999.0,82,0.00,Sunny,,0.12,Open2300\PHP-WU,2013-02-18 12:13:00,
2013-02-18 07:19:00,16.2,11.6,30.45,NNW,337,0.0,-999.0,82,0.00,Sunny,,0.12,Open2300\PHP-WU,2013-02-18 12:19:00,
2013-02-18 07:25:00,16.7,12.1,30.45,NNW,337,0.0,-999.0,82,0.00,Sunny,,0.12,Open2300\PHP-WU,2013-02-18 12:25:00,
2013-02-18 07:31:00,16.7,12.1,30.45,NNW,337,0.0,-999.0,82,0.00,Sunny,,0.12,Open2300\PHP-WU,2013-02-18 12:31:00,
2013-02-18 07:37:00,16.5,11.9,30.45,NNW,337,0.0,-999.0,82,0.00,Sunny,,0.12,Open2300\PHP-WU,2013-02-18 12:37:00,
2013-02-18 07:43:00,16.7,12.1,30.45,NNW,337,0.0,-999.0,82,0.00,Sunny,,0.12,Open2300\PHP-WU,2013-02-18 12:43:00,
2013-02-18 07:49:00,16.9,12.3,30.46,NNW,337,0.0,-999.0,82,0.00,Sunny,,0.12,Open2300\PHP-WU,2013-02-18 12:49:00,
2013-02-18 07:57:00,17.2,12.6,30.46,NNW,337,0.0,-999.0,82,0.00,Sunny,,0.12,Open2300\PHP-WU,2013-02-18 12:57:00,
2013-02-18 08:03:00,17.4,12.7,30.46,NNW,337,0.0,-999.0,82,0.00,Sunny,,0.12,Open2300\PHP-WU,2013-02-18 13:03:00,
2013-02-18 08:09:00,17.8,13.1,30.46,NNW,337,0.0,-999.0,82,0.00,Sunny,,0.12,Open2300\PHP-WU,2013-02-18 13:09:00,
2013-02-18 08:15:00,18.7,14.3,30.47,NNW,337,0.0,-999.0,83,0.00,Sunny,,0.12,Open2300\PHP-WU,2013-02-18 13:15:00,
2013-02-18 08:21:00,19.6,15.2,30.48,NNW,337,0.0,-999.0,83,0.00,Sunny,,0.12,Open2300\PHP-WU,2013-02-18 13:21:00,
2013-02-18 08:27:00,21.0,16.6,30.48,NNW,337,0.0,-999.0,83,0.00,Sunny,,0.12,Open2300\PHP-WU,2013-02-18 13:27:00,
2013-02-18 08:33:00,22.1,17.4,30.47,NNW,337,0.0,-999.0,82,0.00,Sunny,,0.12,Open2300\PHP-WU,2013-02-18 13:33:00,
2013-02-18 08:39:00,22.6,18.0,30.48,NNW,337,0.0,-999.0,82,0.00,Sunny,,0.12,Open2300\PHP-WU,2013-02-18 13:39:00,
2013-02-18 08:45:00,23.7,19.0,30.48,NNW,337,0.0,-999.0,82,0.00,Sunny,,0.12,Open2300\PHP-WU,2013-02-18 13:45:00,
2013-02-18 08:51:00,25.0,20.0,30.48,NNW,337,0.0,-999.0,81,0.00,Sunny,,0.12,Open2300\PHP-WU,2013-02-18 13:51:00,
2013-02-18 08:57:00,26.2,20.6,30.48,WNW,292,0.0,-999.0,79,0.00,Sunny,,0.12,Open2300\PHP-WU,2013-02-18 13:57:00,
2013-02-18 09:03:00,27.7,21.4,30.48,West,270,0.0,-999.0,77,0.00,Sunny,,0.12,Open2300\PHP-WU,2013-02-18 14:03:00,
2013-02-18 09:09:00,28.8,21.8,30.48,West,270,0.0,-999.0,75,0.00,Sunny,,0.12,Open2300\PHP-WU,2013-02-18 14:09:00,
2013-02-18 09:15:00,31.3,23.0,30.48,West,270,0.0,-999.0,71,0.00,Sunny,,0.12,Open2300\PHP-WU,2013-02-18 14:15:00,
2013-02-18 09:21:00,32.9,23.1,30.48,West,270,0.0,-999.0,67,0.00,Sunny,,0.12,Open2300\PHP-WU,2013-02-18 14:21:00,
2013-02-18 09:27:00,34.9,23.5,30.48,SSE,157,0.0,-999.0,63,0.00,Sunny,,0.12,Open2300\PHP-WU,2013-02-18 14:27:00,
2013-02-18 09:34:00,35.8,22.9,30.47,West,270,0.0,-999.0,59,0.00,Sunny,,0.12,Open2300\PHP-WU,2013-02-18 14:34:00,
2013-02-18 09:40:00,36.5,22.7,30.47,West,270,0.0,-999.0,57,0.00,Sunny,,0.12,Open2300\PHP-WU,2013-02-18 14:40:00,
2013-02-18 09:46:00,36.9,21.0,30.48,WSW,247,0.0,-999.0,52,0.00,Sunny,,0.12,Open2300\PHP-WU,2013-02-18 14:46:00,
2013-02-18 09:52:00,37.4,21.3,30.48,WNW,292,0.0,-999.0,52,0.00,Sunny,,0.12,Open2300\PHP-WU,2013-02-18 14:52:00,
2013-02-18 09:58:00,37.8,19.8,30.48,West,270,0.0,-999.0,48,0.00,Sunny,,0.12,Open2300\PHP-WU,2013-02-18 14:58:00,
2013-02-18 10:04:00,39.0,20.9,30.48,West,270,0.0,-999.0,48,0.00,Sunny,,0.12,Open2300\PHP-WU,2013-02-18 15:04:00,
2013-02-18 10:10:00,39.4,20.2,30.48,West,270,0.0,-999.0,46,0.00,Sunny,,0.12,Open2300\PHP-WU,2013-02-18 15:10:00,
2013-02-18 10:16:00,40.6,20.8,30.47,ESE,112,0.0,-999.0,45,0.00,Sunny,,0.12,Open2300\PHP-WU,2013-02-18 15:16:00,
2013-02-18 10:22:00,41.5,21.1,30.47,North,0,0.0,-999.0,44,0.00,Sunny,,0.12,Open2300\PHP-WU,2013-02-18 15:22:00,
2013-02-18 10:28:00,42.3,21.2,30.47,SE,135,0.0,-999.0,43,0.00,Sunny,,0.12,Open2300\PHP-WU,2013-02-18 15:28:00,
2013-02-18 10:34:00,42.1,20.5,30.47,West,270,0.0,-999.0,42,0.00,Sunny,,0.12,Open2300\PHP-WU,2013-02-18 15:34:00,
2013-02-18 10:42:00,42.6,20.5,30.47,West,270,0.0,-999.0,41,0.00,Sunny,,0.12,Open2300\PHP-WU,2013-02-18 15:42:00,
2013-02-18 10:48:00,42.4,19.8,30.47,WSW,247,0.0,-999.0,40,0.00,Sunny,,0.12,Open2300\PHP-WU,2013-02-18 15:48:00,
2013-02-18 10:54:00,43.0,20.3,30.47,WSW,247,0.0,-999.0,40,0.00,Sunny,,0.12,Open2300\PHP-WU,2013-02-18 15:54:00,
2013-02-18 11:00:00,43.3,19.9,30.47,WSW,247,0.0,-999.0,39,0.00,Sunny,,0.10,Open2300\PHP-WU,2013-02-18 16:00:00,
2013-02-18 11:06:00,43.9,20.4,30.46,SSE,157,0.0,-999.0,39,0.02,Sunny,,0.12,Open2300\PHP-WU,2013-02-18 16:06:00,
2013-02-18 11:12:00,44.8,21.2,30.47,WSW,247,0.0,-999.0,39,0.02,Sunny,,0.12,Open2300\PHP-WU,2013-02-18 16:12:00,
2013-02-18 11:18:00,45.0,20.7,30.46,West,270,0.0,-999.0,38,0.02,Sunny,,0.12,Open2300\PHP-WU,2013-02-18 16:18:00,
2013-02-18 11:24:00,45.1,20.9,30.47,SW,225,0.0,-999.0,38,0.02,Sunny,,0.12,Open2300\PHP-WU,2013-02-18 16:24:00,
2013-02-18 11:30:00,45.7,20.7,30.46,WSW,247,0.0,-999.0,37,0.02,Sunny,,0.12,Open2300\PHP-WU,2013-02-18 16:30:00,
2013-02-18 11:36:00,46.0,20.4,30.46,West,270,0.0,-999.0,36,0.02,Sunny,,0.12,Open2300\PHP-WU,2013-02-18 16:36:00,
2013-02-18 11:42:00,46.0,20.4,30.46,West,270,0.0,-999.0,36,0.02,Sunny,,0.12,Open2300\PHP-WU,2013-02-18 16:42:00,
2013-02-18 11:48:00,46.0,19.7,30.46,NW,315,0.0,-999.0,35,0.02,Sunny,,0.12,Open2300\PHP-WU,2013-02-18 16:48:00,
2013-02-18 11:54:00,46.8,21.0,30.46,WNW,292,0.0,-999.0,36,0.02,Sunny,,0.12,Open2300\PHP-WU,2013-02-18 16:54:00,
2013-02-18 12:00:00,46.6,19.5,30.46,NNW,337,0.0,-999.0,34,0.00,Sunny,,0.12,Open2300\PHP-WU,2013-02-18 17:00:00,
2013-02-18 12:06:00,46.9,19.9,30.45,West,270,0.0,-999.0,34,0.00,Sunny,,0.12,Open2300\PHP-WU,2013-02-18 17:06:00,
2013-02-18 12:12:00,47.8,20.7,30.45,WSW,247,0.0,-999.0,34,0.00,Sunny,,0.12,Open2300\PHP-WU,2013-02-18 17:12:00,
2013-02-18 12:18:00,48.4,22.0,30.45,WSW,247,0.0,-999.0,35,0.00,Sunny,,0.12,Open2300\PHP-WU,2013-02-18 17:18:00,
2013-02-18 12:24:00,48.0,20.2,30.44,SW,225,0.0,-999.0,33,0.00,Sunny,,0.12,Open2300\PHP-WU,2013-02-18 17:24:00,
2013-02-18 12:30:00,49.1,21.7,30.44,WSW,247,0.0,-999.0,34,0.00,Sunny,,0.12,Open2300\PHP-WU,2013-02-18 17:30:00,
2013-02-18 12:36:00,49.3,21.2,30.43,SW,225,0.0,-999.0,33,0.00,Sunny,,0.12,Open2300\PHP-WU,2013-02-18 17:36:00,
2013-02-18 12:42:00,48.7,20.8,30.43,WSW,247,0.0,-999.0,33,0.00,Sunny,,0.12,Open2300\PHP-WU,2013-02-18 17:42:00,
2013-02-18 12:48:00,49.3,21.2,30.42,WSW,247,0.0,-999.0,33,0.00,Sunny,,0.12,Open2300\PHP-WU,2013-02-18 17:48:00,
2013-02-18 12:54:00,49.6,21.5,30.42,WSW,247,0.0,-999.0,33,0.00,Sunny,,0.12,Open2300\PHP-WU,2013-02-18 17:54:00,
2013-02-18 13:00:00,50.0,21.8,30.41,WSW,247,0.0,-999.0,33,0.00,Sunny,,0.08,Open2300\PHP-WU,2013-02-18 18:00:00,
2013-02-18 13:06:00,51.1,22.8,30.41,WSW,247,0.0,-999.0,33,0.00,Sunny,,0.08,Open2300\PHP-WU,2013-02-18 18:06:00,
2013-02-18 13:11:00,51.4,23.1,30.41,WSW,247,0.0,-999.0,33,0.00,Sunny,,0.08,Open2300\PHP-WU,2013-02-18 18:11:00,
2013-02-18 13:18:00,50.4,21.8,30.41,WSW,247,0.0,-999.0,32,0.00,Sunny,,0.08,Open2300\PHP-WU,2013-02-18 18:18:00,
2013-02-18 13:23:00,50.7,22.5,30.40,WSW,247,0.0,-999.0,33,0.00,Sunny,,0.08,Open2300\PHP-WU,2013-02-18 18:23:00,
2013-02-18 13:30:00,51.8,23.4,30.40,WSW,247,0.0,-999.0,33,0.00,Sunny,,0.08,Open2300\PHP-WU,2013-02-18 18:30:00,
2013-02-18 13:35:00,51.6,22.6,30.39,WSW,247,0.0,-999.0,32,0.00,Sunny,,0.08,Open2300\PHP-WU,2013-02-18 18:35:00,
2013-02-18 13:42:00,52.0,22.9,30.39,WSW,247,0.0,-999.0,32,0.00,Sunny,,0.08,Open2300\PHP-WU,2013-02-18 18:42:00,
2013-02-18 13:48:00,52.5,23.4,30.39,WSW,247,0.0,-999.0,32,0.00,Sunny,,0.08,Open2300\PHP-WU,2013-02-18 18:48:00,
2013-02-18 13:53:00,53.2,24.0,30.38,WSW,247,0.0,-999.0,32,0.00,Sunny,,0.08,Open2300\PHP-WU,2013-02-18 18:53:00,
2013-02-18 13:59:00,53.4,23.5,30.38,WSW,247,0.0,-999.0,31,0.00,Sunny,,0.08,Open2300\PHP-WU,2013-02-18 18:59:00,
2013-02-18 14:05:00,52.9,23.0,30.38,WSW,247,0.0,-999.0,31,0.00,Sunny,,0.06,Open2300\PHP-WU,2013-02-18 19:05:00,
2013-02-18 14:12:00,53.8,23.8,30.38,WSW,247,0.0,-999.0,31,0.00,Sunny,,0.06,Open2300\PHP-WU,2013-02-18 19:12:00,
2013-02-18 14:18:00,53.4,23.4,30.38,WSW,247,0.0,-999.0,31,0.00,Sunny,,0.06,Open2300\PHP-WU,2013-02-18 19:18:00,
2013-02-18 14:23:00,54.1,24.1,30.38,WSW,247,0.0,-999.0,31,0.00,Sunny,,0.06,Open2300\PHP-WU,2013-02-18 19:23:00,
2013-02-18 14:30:00,53.4,22.8,30.38,WSW,247,1.3,-999.0,30,0.02,Sunny,,0.08,Open2300\PHP-WU,2013-02-18 19:30:00,
2013-02-18 14:35:00,54.0,24.0,30.38,WSW,247,0.0,-999.0,31,0.02,Sunny,,0.08,Open2300\PHP-WU,2013-02-18 19:35:00,
2013-02-18 14:41:00,54.1,23.4,30.38,WSW,247,0.9,-999.0,30,0.02,Sunny,,0.08,Open2300\PHP-WU,2013-02-18 19:41:00,
2013-02-18 14:48:00,53.4,22.8,30.37,WSW,247,0.0,-999.0,30,0.02,Sunny,,0.08,Open2300\PHP-WU,2013-02-18 19:48:00,
2013-02-18 14:53:00,53.4,22.8,30.37,WSW,247,0.0,-999.0,30,0.02,Sunny,,0.08,Open2300\PHP-WU,2013-02-18 19:53:00,
2013-02-18 15:01:00,54.3,23.6,30.37,WSW,247,4.5,-999.0,30,0.02,Sunny,,0.06,Open2300\PHP-WU,2013-02-18 20:01:00,
2013-02-18 15:08:00,53.4,22.8,30.37,WSW,247,0.0,-999.0,30,0.02,Sunny,,0.06,Open2300\PHP-WU,2013-02-18 20:08:00,
2013-02-18 15:13:00,54.9,24.0,30.37,WSW,247,0.0,-999.0,30,0.02,Sunny,,0.06,Open2300\PHP-WU,2013-02-18 20:13:00,
2013-02-18 15:19:00,55.0,24.2,30.37,WSW,247,0.0,-999.0,30,0.02,Sunny,,0.06,Open2300\PHP-WU,2013-02-18 20:19:00,
2013-02-18 15:25:00,55.0,24.2,30.37,WSW,247,0.0,-999.0,30,0.00,Sunny,,0.06,Open2300\PHP-WU,2013-02-18 20:25:00,
2013-02-18 15:33:00,55.0,24.2,30.37,WSW,247,0.0,-999.0,30,0.00,Sunny,,0.06,Open2300\PHP-WU,2013-02-18 20:33:00,
2013-02-18 15:39:00,55.2,24.3,30.36,WSW,247,0.0,-999.0,30,0.00,Sunny,,0.06,Open2300\PHP-WU,2013-02-18 20:39:00,
2013-02-18 15:45:00,55.9,24.9,30.36,WSW,247,0.0,-999.0,30,0.00,Sunny,,0.06,Open2300\PHP-WU,2013-02-18 20:45:00,
2013-02-18 15:51:00,55.4,24.4,30.36,WSW,247,0.0,-999.0,30,0.00,Sunny,,0.06,Open2300\PHP-WU,2013-02-18 20:51:00,
2013-02-18 15:57:00,54.7,23.9,30.36,WSW,247,0.0,-999.0,30,0.00,Sunny,,0.06,Open2300\PHP-WU,2013-02-18 20:57:00,
2013-02-18 16:03:00,55.0,24.2,30.36,WSW,247,0.0,-999.0,30,0.00,Sunny,,0.04,Open2300\PHP-WU,2013-02-18 21:03:00,
2013-02-18 16:09:00,55.2,24.3,30.36,WSW,247,0.0,-999.0,30,0.00,Sunny,,0.04,Open2300\PHP-WU,2013-02-18 21:09:00,
2013-02-18 16:15:00,54.1,23.4,30.36,WSW,247,0.0,-999.0,30,0.00,Sunny,,0.04,Open2300\PHP-WU,2013-02-18 21:15:00,
2013-02-18 16:21:00,53.4,22.8,30.36,WSW,247,0.0,-999.0,30,0.00,Sunny,,0.04,Open2300\PHP-WU,2013-02-18 21:21:00,
2013-02-18 16:27:00,52.5,22.7,30.36,WSW,247,0.0,-999.0,31,0.00,Sunny,,0.04,Open2300\PHP-WU,2013-02-18 21:27:00,
2013-02-18 16:33:00,52.0,22.9,30.35,West,270,0.0,-999.0,32,0.00,Sunny,,0.04,Open2300\PHP-WU,2013-02-18 21:33:00,
2013-02-18 16:39:00,51.1,22.1,30.35,WSW,247,0.0,-999.0,32,0.00,Sunny,,0.04,Open2300\PHP-WU,2013-02-18 21:39:00,
2013-02-18 16:45:00,50.4,22.1,30.35,SE,135,0.0,-999.0,33,0.00,Sunny,,0.04,Open2300\PHP-WU,2013-02-18 21:45:00,
2013-02-18 16:51:00,49.8,21.7,30.36,WSW,247,0.0,-999.0,33,0.00,Sunny,,0.04,Open2300\PHP-WU,2013-02-18 21:51:00,
2013-02-18 16:57:00,49.1,21.7,30.35,WSW,247,0.0,-999.0,34,0.00,Sunny,,0.04,Open2300\PHP-WU,2013-02-18 21:57:00,
2013-02-18 17:03:00,48.6,21.3,30.35,SE,135,0.0,-999.0,34,0.00,Sunny,,0.04,Open2300\PHP-WU,2013-02-18 22:03:00,
2013-02-18 17:09:00,48.4,21.8,30.35,NW,315,0.0,-999.0,35,0.00,Sunny,,0.04,Open2300\PHP-WU,2013-02-18 22:09:00,
2013-02-18 17:15:00,48.0,21.5,30.35,South,180,0.0,-999.0,35,0.00,Sunny,,0.04,Open2300\PHP-WU,2013-02-18 22:15:00,
2013-02-18 17:21:00,47.8,21.3,30.35,West,270,0.0,-999.0,35,0.00,Sunny,,0.04,Open2300\PHP-WU,2013-02-18 22:21:00,
2013-02-18 17:27:00,47.3,21.5,30.35,West,270,0.0,-999.0,36,0.00,Sunny,,0.04,Open2300\PHP-WU,2013-02-18 22:27:00,
2013-02-18 17:33:00,46.9,21.8,30.36,WSW,247,0.0,-999.0,37,0.00,Sunny,,0.04,Open2300\PHP-WU,2013-02-18 22:33:00,
2013-02-18 17:39:00,46.2,21.2,30.36,WSW,247,0.0,-999.0,37,0.00,Sunny,,0.04,Open2300\PHP-WU,2013-02-18 22:39:00,
2013-02-18 17:45:00,46.0,21.7,30.36,West,270,0.0,-999.0,38,0.00,Sunny,,0.04,Open2300\PHP-WU,2013-02-18 22:45:00,
2013-02-18 17:51:00,45.5,21.2,30.36,WNW,292,0.0,-999.0,38,0.00,Sunny,,0.04,Open2300\PHP-WU,2013-02-18 22:51:00,
2013-02-18 17:57:00,44.8,21.2,30.36,West,270,0.0,-999.0,39,0.00,Sunny,,0.04,Open2300\PHP-WU,2013-02-18 22:57:00,
2013-02-18 18:03:00,44.2,21.4,30.36,SSE,157,0.0,-999.0,40,0.00,Sunny,,0.04,Open2300\PHP-WU,2013-02-18 23:03:00,
2013-02-18 18:09:00,43.5,20.8,30.36,SSW,202,0.0,-999.0,40,0.00,Sunny,,0.04,Open2300\PHP-WU,2013-02-18 23:09:00,
2013-02-18 18:15:00,43.0,21.4,30.36,South,180,0.0,-999.0,42,0.00,Sunny,,0.04,Open2300\PHP-WU,2013-02-18 23:15:00,
2013-02-18 18:21:00,42.6,21.0,30.36,South,180,0.0,-999.0,42,0.00,Sunny,,0.04,Open2300\PHP-WU,2013-02-18 23:21:00,
2013-02-18 18:27:00,42.1,21.1,30.37,SSW,202,0.0,-999.0,43,0.00,Sunny,,0.04,Open2300\PHP-WU,2013-02-18 23:27:00,
2013-02-18 18:33:00,41.5,21.1,30.37,SE,135,0.0,-999.0,44,0.00,Sunny,,0.04,Open2300\PHP-WU,2013-02-18 23:33:00,
2013-02-18 18:39:00,41.2,21.3,30.37,South,180,0.0,-999.0,45,0.00,Sunny,,0.04,Open2300\PHP-WU,2013-02-18 23:39:00,
2013-02-18 18:45:00,40.6,20.8,30.36,South,180,0.0,-999.0,45,0.00,Sunny,,0.04,Open2300\PHP-WU,2013-02-18 23:45:00,
2013-02-18 18:51:00,40.1,20.8,30.37,South,180,0.0,-999.0,46,0.00,Sunny,,0.04,Open2300\PHP-WU,2013-02-18 23:51:00,
2013-02-18 18:57:00,39.7,21.0,30.37,South,180,0.0,-999.0,47,0.00,Sunny,,0.04,Open2300\PHP-WU,2013-02-18 23:57:00,
2013-02-18 19:03:00,39.4,20.7,30.37,South,180,0.0,-999.0,47,0.00,Sunny,,0.04,Open2300\PHP-WU,2013-02-19 00:03:00,
2013-02-18 19:09:00,38.8,21.3,30.36,South,180,0.0,-999.0,49,0.00,Sunny,,0.04,Open2300\PHP-WU,2013-02-19 00:09:00,
2013-02-18 19:15:00,38.5,21.5,30.36,South,180,0.0,-999.0,50,0.00,Sunny,,0.04,Open2300\PHP-WU,2013-02-19 00:15:00,
2013-02-18 19:21:00,38.1,21.1,30.36,South,180,0.0,-999.0,50,0.00,Sunny,,0.04,Open2300\PHP-WU,2013-02-19 00:21:00,
2013-02-18 19:27:00,37.8,21.2,30.36,South,180,0.0,-999.0,51,0.00,Sunny,,0.04,Open2300\PHP-WU,2013-02-19 00:27:00,
2013-02-18 19:33:00,37.4,20.9,30.36,South,180,0.0,-999.0,51,0.00,Sunny,,0.04,Open2300\PHP-WU,2013-02-19 00:33:00,
2013-02-18 19:39:00,37.2,21.2,30.36,South,180,0.0,-999.0,52,0.00,Sunny,,0.04,Open2300\PHP-WU,2013-02-19 00:39:00,
2013-02-18 19:45:00,37.4,21.3,30.36,West,270,0.0,-999.0,52,0.00,Sunny,,0.04,Open2300\PHP-WU,2013-02-19 00:45:00,
2013-02-18 19:51:00,37.2,21.2,30.36,West,270,0.0,-999.0,52,0.00,Sunny,,0.04,Open2300\PHP-WU,2013-02-19 00:51:00,
2013-02-18 19:57:00,38.1,20.6,30.36,West,270,0.0,-999.0,49,0.00,Sunny,,0.04,Open2300\PHP-WU,2013-02-19 00:57:00,
2013-02-18 20:03:00,38.8,20.7,30.36,WNW,292,0.0,-999.0,48,0.00,Sunny,,0.04,Open2300\PHP-WU,2013-02-19 01:03:00,
2013-02-18 20:09:00,38.8,20.7,30.36,South,180,0.0,-999.0,48,0.00,Sunny,,0.04,Open2300\PHP-WU,2013-02-19 01:09:00,
2013-02-18 20:15:00,38.8,20.7,30.36,West,270,0.0,-999.0,48,0.00,Sunny,,0.04,Open2300\PHP-WU,2013-02-19 01:15:00,
2013-02-18 20:21:00,39.0,20.9,30.36,West,270,0.0,-999.0,48,0.00,Sunny,,0.04,Open2300\PHP-WU,2013-02-19 01:21:00,
2013-02-18 20:27:00,39.0,20.9,30.36,South,180,0.0,-999.0,48,0.00,Sunny,,0.04,Open2300\PHP-WU,2013-02-19 01:27:00,
2013-02-18 20:33:00,39.6,20.9,30.36,SW,225,0.0,-999.0,47,0.00,Sunny,,0.04,Open2300\PHP-WU,2013-02-19 01:33:00,
2013-02-18 20:39:00,40.1,20.8,30.35,WNW,292,0.0,-999.0,46,0.00,Sunny,,0.04,Open2300\PHP-WU,2013-02-19 01:39:00,
2013-02-18 20:45:00,40.3,21.0,30.35,WSW,247,0.0,-999.0,46,0.00,Sunny,,0.04,Open2300\PHP-WU,2013-02-19 01:45:00,
2013-02-18 20:51:00,40.5,21.7,30.35,West,270,0.0,-999.0,47,0.00,Sunny,,0.04,Open2300\PHP-WU,2013-02-19 01:51:00,
2013-02-18 20:57:00,40.6,21.3,30.35,SW,225,0.0,-999.0,46,0.00,Sunny,,0.04,Open2300\PHP-WU,2013-02-19 01:57:00,
2013-02-18 21:03:00,40.8,21.5,30.35,SSE,157,0.0,-999.0,46,0.00,Sunny,,0.04,Open2300\PHP-WU,2013-02-19 02:03:00,
2013-02-18 21:09:00,40.5,21.1,30.35,WSW,247,0.0,-999.0,46,0.00,Sunny,,0.04,Open2300\PHP-WU,2013-02-19 02:09:00,
2013-02-18 21:15:00,40.5,21.1,30.35,WSW,247,0.0,-999.0,46,0.00,Sunny,,0.04,Open2300\PHP-WU,2013-02-19 02:15:00,
2013-02-18 21:21:00,40.6,21.3,30.35,WNW,292,0.0,-999.0,46,0.00,Sunny,,0.04,Open2300\PHP-WU,2013-02-19 02:21:00,
2013-02-18 21:27:00,40.8,21.5,30.35,SW,225,0.0,-999.0,46,0.00,Sunny,,0.04,Open2300\PHP-WU,2013-02-19 02:27:00,
2013-02-18 21:34:00,41.0,21.6,30.35,WSW,247,0.0,-999.0,46,0.00,Sunny,,0.04,Open2300\PHP-WU,2013-02-19 02:34:00,
2013-02-18 21:40:00,40.8,22.0,30.35,WNW,292,0.0,-999.0,47,0.00,Sunny,,0.04,Open2300\PHP-WU,2013-02-19 02:40:00,
2013-02-18 21:46:00,40.8,22.0,30.35,West,270,0.0,-999.0,47,0.00,Sunny,,0.04,Open2300\PHP-WU,2013-02-19 02:46:00,
2013-02-18 21:52:00,41.0,22.7,30.35,West,270,0.0,-999.0,48,0.00,Sunny,,0.04,Open2300\PHP-WU,2013-02-19 02:52:00,
2013-02-18 21:58:00,40.8,22.5,30.35,WSW,247,0.0,-999.0,48,0.00,Sunny,,0.04,Open2300\PHP-WU,2013-02-19 02:58:00,
2013-02-18 22:04:00,40.6,22.9,30.34,West,270,0.0,-999.0,49,0.00,Sunny,,0.04,Open2300\PHP-WU,2013-02-19 03:04:00,
2013-02-18 22:10:00,40.6,22.9,30.34,West,270,0.0,-999.0,49,0.00,Sunny,,0.04,Open2300\PHP-WU,2013-02-19 03:10:00,
2013-02-18 22:16:00,40.6,22.9,30.34,West,270,0.0,-999.0,49,0.00,Sunny,,0.04,Open2300\PHP-WU,2013-02-19 03:16:00,
2013-02-18 22:22:00,40.5,22.7,30.34,SSW,202,0.0,-999.0,49,0.00,Sunny,,0.04,Open2300\PHP-WU,2013-02-19 03:22:00,
2013-02-18 22:28:00,40.5,22.7,30.34,South,180,0.0,-999.0,50,0.00,Sunny,,0.04,Open2300\PHP-WU,2013-02-19 03:28:00,
2013-02-18 22:34:00,40.5,23.2,30.35,West,270,0.0,-999.0,50,0.00,Sunny,,0.04,Open2300\PHP-WU,2013-02-19 03:34:00,
2013-02-18 22:40:00,40.5,23.2,30.35,SSW,202,0.0,-999.0,50,0.00,Sunny,,0.04,Open2300\PHP-WU,2013-02-19 03:40:00,
2013-02-18 22:46:00,40.1,22.9,30.34,SW,225,0.0,-999.0,50,0.00,Sunny,,0.04,Open2300\PHP-WU,2013-02-19 03:46:00,
2013-02-18 22:52:00,39.9,23.2,30.34,WNW,292,0.0,-999.0,51,0.00,Sunny,,0.04,Open2300\PHP-WU,2013-02-19 03:52:00,
2013-02-18 23:00:00,39.9,23.2,30.34,SW,225,0.0,-999.0,51,0.00,Sunny,,0.04,Open2300\PHP-WU,2013-02-19 04:00:00,
2013-02-18 23:06:00,39.9,23.6,30.34,SSW,202,0.0,-999.0,52,0.00,Sunny,,0.04,Open2300\PHP-WU,2013-02-19 04:06:00,
2013-02-18 23:12:00,39.6,23.3,30.34,WNW,292,0.0,-999.0,52,0.00,Sunny,,0.04,Open2300\PHP-WU,2013-02-19 04:12:00,
2013-02-18 23:18:00,39.4,23.6,30.34,WSW,247,0.0,-999.0,53,0.00,Sunny,,0.04,Open2300\PHP-WU,2013-02-19 04:18:00,
2013-02-18 23:24:00,39.2,23.4,30.33,SSW,202,0.0,-999.0,53,0.00,Sunny,,0.04,Open2300\PHP-WU,2013-02-19 04:24:00,
2013-02-18 23:30:00,39.4,24.0,30.34,SW,225,0.0,-999.0,54,0.00,Sunny,,0.04,Open2300\PHP-WU,2013-02-19 04:30:00,
2013-02-18 23:36:00,39.0,23.7,30.33,WSW,247,0.0,-999.0,54,0.00,Sunny,,0.04,Open2300\PHP-WU,2013-02-19 04:36:00,
2013-02-18 23:42:00,39.0,23.7,30.33,West,270,0.0,-999.0,54,0.00,Sunny,,0.04,Open2300\PHP-WU,2013-02-19 04:42:00,
2013-02-18 23:48:00,38.8,23.9,30.33,SSE,157,0.0,-999.0,55,0.00,Sunny,,0.04,Open2300\PHP-WU,2013-02-19 04:48:00,
2013-02-18 23:54:00,38.7,23.8,30.32,West,270,0.0,-999.0,55,0.00,Sunny,,0.04,Open2300\PHP-WU,2013-02-19 04:54:00,